Location: LDNL
(36.4545°S, 141.6685°E)
Time: 18:52:06
(UTC+10:00)

Tiros 1 despin weight - Pass Details

Date: 28 January 2022
Orbit: 592 x 639 km, 48.2° (Epoch: 28 May)

Event Time Altitude Azimuth Distance (km) Brightness Sun altitude
Exits shadow 04:46:22 49° 348° (NNW) 813 ? -20.6°
Maximum altitude 04:47:20 62° 39° (NE) 706 ? -20.5°
Drops below altitude 10° 04:51:51 10° 119° (ESE) 1,989 ? -19.8°
Sets 04:54:10 0° 122° (ESE) 2,891 ? -19.5°
